owner,sensor,date,latitude,longitude,vertical_datum,mass_concentration_of_oxygen_in_sea_water,qcFlag 
SCCF RECON,ioos:station:SCCF:13:1,2017-06-01T00:00:00Z,26.5255,-82.0032,2.61,-9999.0,1111122 
SCCF RECON,ioos:station:SCCF:13:1,2017-06-01T01:00:00Z,26.5255,-82.0032,2.56,-9999.0,1111122 
SCCF RECON,ioos:station:SCCF:13:1,2017-06-01T02:00:00Z,26.5255,-82.0032,2.519,-9999.0,1111122 
SCCF RECON,ioos:station:SCCF:13:1,2017-06-01T03:00:00Z,26.5255,-82.0032,2.43,-9999.0,1111122 
SCCF RECON,ioos:station:SCCF:13:1,2017-06-01T04:00:00Z,26.5255,-82.0032,2.34,-9999.0,1111122 
SCCF RECON,ioos:station:SCCF:13:1,2017-06-01T05:00:00Z,26.5255,-82.0032,2.252,-9999.0,1111122 
SCCF RECON,ioos:station:SCCF:13:1,2017-06-01T06:00:00Z,26.5255,-82.0032,2.18,-9999.0,1111122 
SCCF RECON,ioos:station:SCCF:13:1,2017-06-01T07:00:00Z,26.5255,-82.0032,2.171,-9999.0,1111122 
SCCF RECON,ioos:station:SCCF:13:1,2017-06-01T08:00:00Z,26.5255,-82.0032,2.27,-9999.0,1111122 
SCCF RECON,ioos:station:SCCF:13:1,2017-06-01T09:00:00Z,26.5255,-82.0032,2.39,-9999.0,1111122 
SCCF RECON,ioos:station:SCCF:13:1,2017-06-01T10:00:00Z,26.5255,-82.0032,2.46,-9999.0,1111122 
SCCF RECON,ioos:station:SCCF:13:1,2017-06-01T11:00:00Z,26.5255,-82.0032,2.51,-9999.0,1111122 
SCCF RECON,ioos:station:SCCF:13:1,2017-06-01T12:00:00Z,26.5255,-82.0032,2.54,-9999.0,1111122 
SCCF RECON,ioos:station:SCCF:13:1,2017-06-01T13:00:00Z,26.5255,-82.0032,2.559,-9999.0,1111122 
SCCF RECON,ioos:station:SCCF:13:1,2017-06-01T14:00:00Z,26.5255,-82.0032,2.54,-9999.0,1111122 
SCCF RECON,ioos:station:SCCF:13:1,2017-06-01T15:00:00Z,26.5255,-82.0032,2.49,-9999.0,1111122 
SCCF RECON,ioos:station:SCCF:13:1,2017-06-01T16:00:00Z,26.5255,-82.0032,2.468,-9999.0,1111122 
SCCF RECON,ioos:station:SCCF:13:1,2017-06-01T17:00:00Z,26.5255,-82.0032,2.42,-9999.0,1111122 
SCCF RECON,ioos:station:SCCF:13:1,2017-06-01T18:00:00Z,26.5255,-82.0032,2.362,-9999.0,1111122 
SCCF RECON,ioos:station:SCCF:13:1,2017-06-01T19:00:00Z,26.5255,-82.0032,2.342,-9999.0,1111122 
SCCF RECON,ioos:station:SCCF:13:1,2017-06-01T20:00:00Z,26.5255,-82.0032,2.374,-9999.0,1111122 
SCCF RECON,ioos:station:SCCF:13:1,2017-06-01T21:00:00Z,26.5255,-82.0032,2.45,-9999.0,1111122 
SCCF RECON,ioos:station:SCCF:13:1,2017-06-01T22:00:00Z,26.5255,-82.0032,2.49,-9999.0,1111122 
SCCF RECON,ioos:station:SCCF:13:1,2017-06-01T23:00:00Z,26.5255,-82.0032,2.52,-9999.0,1111122 
SCCF RECON,ioos:station:SCCF:13:1,2017-06-02T00:00:00Z,26.5255,-82.0032,2.55,-9999.0,1111122 
SCCF RECON,ioos:station:SCCF:13:1,2017-06-02T01:00:00Z,26.5255,-82.0032,2.58,-9999.0,1111122 
SCCF RECON,ioos:station:SCCF:13:1,2017-06-02T02:00:00Z,26.5255,-82.0032,2.56,-9999.0,1111122 
SCCF RECON,ioos:station:SCCF:13:1,2017-06-02T03:00:00Z,26.5255,-82.0032,2.49,-9999.0,1111122 
SCCF RECON,ioos:station:SCCF:13:1,2017-06-02T04:00:00Z,26.5255,-82.0032,2.41,-9999.0,1111122 
SCCF RECON,ioos:station:SCCF:13:1,2017-06-02T05:00:00Z,26.5255,-82.0032,2.328,-9999.0,1111122 
SCCF RECON,ioos:station:SCCF:13:1,2017-06-02T06:00:00Z,26.5255,-82.0032,2.25,-9999.0,1111122 
SCCF RECON,ioos:station:SCCF:13:1,2017-06-02T07:00:00Z,26.5255,-82.0032,2.21,-9999.0,1111122 
SCCF RECON,ioos:station:SCCF:13:1,2017-06-02T08:00:00Z,26.5255,-82.0032,2.22,-9999.0,1111122 
SCCF RECON,ioos:station:SCCF:13:1,2017-06-02T09:00:00Z,26.5255,-82.0032,2.33,-9999.0,1111122 
SCCF RECON,ioos:station:SCCF:13:1,2017-06-02T10:00:00Z,26.5255,-82.0032,2.42,-9999.0,1111122 
SCCF RECON,ioos:station:SCCF:13:1,2017-06-02T11:00:00Z,26.5255,-82.0032,2.472,-9999.0,1111122 
SCCF RECON,ioos:station:SCCF:13:1,2017-06-02T12:00:00Z,26.5255,-82.0032,2.524,-9999.0,1111122 
SCCF RECON,ioos:station:SCCF:13:1,2017-06-02T13:00:00Z,26.5255,-82.0032,2.601,-9999.0,1111122 
SCCF RECON,ioos:station:SCCF:13:1,2017-06-02T14:00:00Z,26.5255,-82.0032,2.62,-9999.0,1111122 
SCCF RECON,ioos:station:SCCF:13:1,2017-06-02T15:00:00Z,26.5255,-82.0032,2.62,-9999.0,1111122 
SCCF RECON,ioos:station:SCCF:13:1,2017-06-02T16:00:00Z,26.5255,-82.0032,2.56,-9999.0,1111122 
SCCF RECON,ioos:station:SCCF:13:1,2017-06-02T17:00:00Z,26.5255,-82.0032,2.47,-9999.0,1111122 
SCCF RECON,ioos:station:SCCF:13:1,2017-06-02T18:00:00Z,26.5255,-82.0032,2.41,-9999.0,1111122 
SCCF RECON,ioos:station:SCCF:13:1,2017-06-02T19:00:00Z,26.5255,-82.0032,2.349,-9999.0,1111122 
SCCF RECON,ioos:station:SCCF:13:1,2017-06-02T20:00:00Z,26.5255,-82.0032,2.335,-9999.0,1111122 
SCCF RECON,ioos:station:SCCF:13:1,2017-06-02T21:00:00Z,26.5255,-82.0032,2.36,-9999.0,1111122 
SCCF RECON,ioos:station:SCCF:13:1,2017-06-02T22:00:00Z,26.5255,-82.0032,2.41,-9999.0,1111122 
SCCF RECON,ioos:station:SCCF:13:1,2017-06-02T23:00:00Z,26.5255,-82.0032,2.47,-9999.0,1111122 
SCCF RECON,ioos:station:SCCF:13:1,2017-06-03T00:00:00Z,26.5255,-82.0032,2.49,-9999.0,1111122 
SCCF RECON,ioos:station:SCCF:13:1,2017-06-03T01:00:00Z,26.5255,-82.0032,2.52,-9999.0,1111122 
SCCF RECON,ioos:station:SCCF:13:1,2017-06-03T02:00:00Z,26.5255,-82.0032,2.53,-9999.0,1111122 
SCCF RECON,ioos:station:SCCF:13:1,2017-06-03T03:00:00Z,26.5255,-82.0032,2.501,-9999.0,1111122 
SCCF RECON,ioos:station:SCCF:13:1,2017-06-03T04:00:00Z,26.5255,-82.0032,2.43,-9999.0,1111122 
SCCF RECON,ioos:station:SCCF:13:1,2017-06-03T05:00:00Z,26.5255,-82.0032,2.38,-9999.0,1111122 
SCCF RECON,ioos:station:SCCF:13:1,2017-06-03T06:00:00Z,26.5255,-82.0032,2.32,-9999.0,1111122 
SCCF RECON,ioos:station:SCCF:13:1,2017-06-03T07:00:00Z,26.5255,-82.0032,2.25,-9999.0,1111122 
SCCF RECON,ioos:station:SCCF:13:1,2017-06-03T08:00:00Z,26.5255,-82.0032,2.22,-9999.0,1111122 
SCCF RECON,ioos:station:SCCF:13:1,2017-06-03T09:00:00Z,26.5255,-82.0032,2.269,-9999.0,1111122 
SCCF RECON,ioos:station:SCCF:13:1,2017-06-03T10:00:00Z,26.5255,-82.0032,2.385,-9999.0,1111122 
SCCF RECON,ioos:station:SCCF:13:1,2017-06-03T11:00:00Z,26.5255,-82.0032,2.47,-9999.0,1111122 
SCCF RECON,ioos:station:SCCF:13:1,2017-06-03T12:00:00Z,26.5255,-82.0032,2.528,-9999.0,1111122 
SCCF RECON,ioos:station:SCCF:13:1,2017-06-03T13:00:00Z,26.5255,-82.0032,2.583,-9999.0,1111122 
SCCF RECON,ioos:station:SCCF:13:1,2017-06-03T14:00:00Z,26.5255,-82.0032,2.636,-9999.0,1111122 
SCCF RECON,ioos:station:SCCF:13:1,2017-06-03T15:00:00Z,26.5255,-82.0032,2.65,-9999.0,1111122 
SCCF RECON,ioos:station:SCCF:13:1,2017-06-03T16:00:00Z,26.5255,-82.0032,2.609,-9999.0,1111122 
SCCF RECON,ioos:station:SCCF:13:1,2017-06-03T17:00:00Z,26.5255,-82.0032,2.51,-9999.0,1111122 
SCCF RECON,ioos:station:SCCF:13:1,2017-06-03T18:00:00Z,26.5255,-82.0032,2.42,-9999.0,1111122 
SCCF RECON,ioos:station:SCCF:13:1,2017-06-03T19:00:00Z,26.5255,-82.0032,2.358,-9999.0,1111122 
SCCF RECON,ioos:station:SCCF:13:1,2017-06-03T20:00:00Z,26.5255,-82.0032,2.301,-9999.0,1111122 
SCCF RECON,ioos:station:SCCF:13:1,2017-06-03T21:00:00Z,26.5255,-82.0032,2.26,-9999.0,1111122 
SCCF RECON,ioos:station:SCCF:13:1,2017-06-03T22:00:00Z,26.5255,-82.0032,2.297,-9999.0,1111122 
SCCF RECON,ioos:station:SCCF:13:1,2017-06-03T23:00:00Z,26.5255,-82.0032,2.39,-9999.0,1111122 
SCCF RECON,ioos:station:SCCF:13:1,2017-06-04T00:00:00Z,26.5255,-82.0032,2.41,-9999.0,1111122 
SCCF RECON,ioos:station:SCCF:13:1,2017-06-04T01:00:00Z,26.5255,-82.0032,2.43,-9999.0,1111122 
SCCF RECON,ioos:station:SCCF:13:1,2017-06-04T02:00:00Z,26.5255,-82.0032,2.473,-9999.0,1111122 
SCCF RECON,ioos:station:SCCF:13:1,2017-06-04T03:00:00Z,26.5255,-82.0032,2.5,-9999.0,1111122 
SCCF RECON,ioos:station:SCCF:13:1,2017-06-04T04:00:00Z,26.5255,-82.0032,2.49,-9999.0,1111122 
SCCF RECON,ioos:station:SCCF:13:1,2017-06-04T05:00:00Z,26.5255,-82.0032,2.47,-9999.0,1111122 
SCCF RECON,ioos:station:SCCF:13:1,2017-06-04T06:00:00Z,26.5255,-82.0032,2.41,-9999.0,1111122 
SCCF RECON,ioos:station:SCCF:13:1,2017-06-04T07:00:00Z,26.5255,-82.0032,2.37,-9999.0,1111122 
SCCF RECON,ioos:station:SCCF:13:1,2017-06-04T08:00:00Z,26.5255,-82.0032,2.32,-9999.0,1111122 
SCCF RECON,ioos:station:SCCF:13:1,2017-06-04T09:00:00Z,26.5255,-82.0032,2.28,-9999.0,1111122 
SCCF RECON,ioos:station:SCCF:13:1,2017-06-04T10:00:00Z,26.5255,-82.0032,2.345,-9999.0,1111122 
SCCF RECON,ioos:station:SCCF:13:1,2017-06-04T11:00:00Z,26.5255,-82.0032,2.45,-9999.0,1111122 
SCCF RECON,ioos:station:SCCF:13:1,2017-06-04T12:00:00Z,26.5255,-82.0032,2.534,-9999.0,1111122 
SCCF RECON,ioos:station:SCCF:13:1,2017-06-04T13:00:00Z,26.5255,-82.0032,2.59,-9999.0,1111122 
SCCF RECON,ioos:station:SCCF:13:1,2017-06-04T14:00:00Z,26.5255,-82.0032,2.64,-9999.0,1111122 
SCCF RECON,ioos:station:SCCF:13:1,2017-06-04T15:00:00Z,26.5255,-82.0032,2.66,-9999.0,1111122 
SCCF RECON,ioos:station:SCCF:13:1,2017-06-04T16:00:00Z,26.5255,-82.0032,2.651,-9999.0,1111122 
SCCF RECON,ioos:station:SCCF:13:1,2017-06-04T17:00:00Z,26.5255,-82.0032,2.58,-9999.0,1111122 
SCCF RECON,ioos:station:SCCF:13:1,2017-06-04T18:00:00Z,26.5255,-82.0032,2.487,-9999.0,1111122 
SCCF RECON,ioos:station:SCCF:13:1,2017-06-04T19:00:00Z,26.5255,-82.0032,2.41,-9999.0,1111122 
SCCF RECON,ioos:station:SCCF:13:1,2017-06-04T20:00:00Z,26.5255,-82.0032,2.33,-9999.0,1111122 
SCCF RECON,ioos:station:SCCF:13:1,2017-06-04T21:00:00Z,26.5255,-82.0032,2.25,-9999.0,1111122 
SCCF RECON,ioos:station:SCCF:13:1,2017-06-04T22:00:00Z,26.5255,-82.0032,2.218,-9999.0,1111122 
SCCF RECON,ioos:station:SCCF:13:1,2017-06-04T23:00:00Z,26.5255,-82.0032,2.259,-9999.0,1111122 
SCCF RECON,ioos:station:SCCF:13:1,2017-06-05T00:00:00Z,26.5255,-82.0032,2.37,-9999.0,1111122 
SCCF RECON,ioos:station:SCCF:13:1,2017-06-05T01:00:00Z,26.5255,-82.0032,2.44,-9999.0,1111122 
SCCF RECON,ioos:station:SCCF:13:1,2017-06-05T02:00:00Z,26.5255,-82.0032,2.48,-9999.0,1111122 
SCCF RECON,ioos:station:SCCF:13:1,2017-06-05T03:00:00Z,26.5255,-82.0032,2.52,-9999.0,1111122 
SCCF RECON,ioos:station:SCCF:13:1,2017-06-05T04:00:00Z,26.5255,-82.0032,2.55,-9999.0,1111122 
SCCF RECON,ioos:station:SCCF:13:1,2017-06-05T05:00:00Z,26.5255,-82.0032,2.56,-9999.0,1111122 
SCCF RECON,ioos:station:SCCF:13:1,2017-06-05T06:00:00Z,26.5255,-82.0032,2.55,-9999.0,1111122 
SCCF RECON,ioos:station:SCCF:13:1,2017-06-05T07:00:00Z,26.5255,-82.0032,2.49,-9999.0,1111122 
SCCF RECON,ioos:station:SCCF:13:1,2017-06-05T08:00:00Z,26.5255,-82.0032,2.42,-9999.0,1111122 
SCCF RECON,ioos:station:SCCF:13:1,2017-06-05T09:00:00Z,26.5255,-82.0032,2.38,-9999.0,1111122 
SCCF RECON,ioos:station:SCCF:13:1,2017-06-05T10:00:00Z,26.5255,-82.0032,2.38,-9999.0,1111122 
SCCF RECON,ioos:station:SCCF:13:1,2017-06-05T11:00:00Z,26.5255,-82.0032,2.49,-9999.0,1111122 
SCCF RECON,ioos:station:SCCF:13:1,2017-06-05T12:00:00Z,26.5255,-82.0032,2.573,-9999.0,1111122 
SCCF RECON,ioos:station:SCCF:13:1,2017-06-05T13:00:00Z,26.5255,-82.0032,2.636,-9999.0,1111122 
SCCF RECON,ioos:station:SCCF:13:1,2017-06-05T14:00:00Z,26.5255,-82.0032,2.687,-9999.0,1111122 
SCCF RECON,ioos:station:SCCF:13:1,2017-06-05T15:00:00Z,26.5255,-82.0032,2.72,-9999.0,1111122 
SCCF RECON,ioos:station:SCCF:13:1,2017-06-05T16:00:00Z,26.5255,-82.0032,2.75,-9999.0,1111122 
SCCF RECON,ioos:station:SCCF:13:1,2017-06-05T17:00:00Z,26.5255,-82.0032,2.75,-9999.0,1111122 
SCCF RECON,ioos:station:SCCF:13:1,2017-06-05T18:00:00Z,26.5255,-82.0032,2.59,-9999.0,1111122 
SCCF RECON,ioos:station:SCCF:13:1,2017-06-05T19:00:00Z,26.5255,-82.0032,2.497,-9999.0,1111122 
SCCF RECON,ioos:station:SCCF:13:1,2017-06-05T20:00:00Z,26.5255,-82.0032,2.43,-9999.0,1111122 
SCCF RECON,ioos:station:SCCF:13:1,2017-06-05T21:00:00Z,26.5255,-82.0032,2.33,-9999.0,1111122 
SCCF RECON,ioos:station:SCCF:13:1,2017-06-05T22:00:00Z,26.5255,-82.0032,2.23,-9999.0,1111122 
SCCF RECON,ioos:station:SCCF:13:1,2017-06-05T23:00:00Z,26.5255,-82.0032,2.18,-9999.0,1111122 
SCCF RECON,ioos:station:SCCF:13:1,2017-06-06T00:00:00Z,26.5255,-82.0032,2.237,-9999.0,1111122 
SCCF RECON,ioos:station:SCCF:13:1,2017-06-06T01:00:00Z,26.5255,-82.0032,2.392,-9999.0,1111122 
SCCF RECON,ioos:station:SCCF:13:1,2017-06-06T02:00:00Z,26.5255,-82.0032,2.44,-9999.0,1111122 
SCCF RECON,ioos:station:SCCF:13:1,2017-06-06T03:00:00Z,26.5255,-82.0032,2.47,-9999.0,1111122 
SCCF RECON,ioos:station:SCCF:13:1,2017-06-06T04:00:00Z,26.5255,-82.0032,2.519,-9999.0,1111122 
SCCF RECON,ioos:station:SCCF:13:1,2017-06-06T05:00:00Z,26.5255,-82.0032,2.55,-9999.0,1111122 
SCCF RECON,ioos:station:SCCF:13:1,2017-06-06T06:00:00Z,26.5255,-82.0032,2.55,-9999.0,1111122 
SCCF RECON,ioos:station:SCCF:13:1,2017-06-06T07:00:00Z,26.5255,-82.0032,2.49,-9999.0,1111122 
SCCF RECON,ioos:station:SCCF:13:1,2017-06-06T08:00:00Z,26.5255,-82.0032,2.49,-9999.0,1111122 
SCCF RECON,ioos:station:SCCF:13:1,2017-06-06T09:00:00Z,26.5255,-82.0032,2.42,-9999.0,1111122 
SCCF RECON,ioos:station:SCCF:13:1,2017-06-06T10:00:00Z,26.5255,-82.0032,2.4,-9999.0,1111122 
SCCF RECON,ioos:station:SCCF:13:1,2017-06-06T11:00:00Z,26.5255,-82.0032,2.48,-9999.0,1111122 
SCCF RECON,ioos:station:SCCF:13:1,2017-06-06T12:00:00Z,26.5255,-82.0032,2.56,-9999.0,1111122 
SCCF RECON,ioos:station:SCCF:13:1,2017-06-06T13:00:00Z,26.5255,-82.0032,2.66,-9999.0,1111122 
SCCF RECON,ioos:station:SCCF:13:1,2017-06-06T14:00:00Z,26.5255,-82.0032,2.74,-9999.0,1111122 
SCCF RECON,ioos:station:SCCF:13:1,2017-06-06T15:00:00Z,26.5255,-82.0032,2.799,-9999.0,1111122 
SCCF RECON,ioos:station:SCCF:13:1,2017-06-06T16:00:00Z,26.5255,-82.0032,2.813,-9999.0,1111122 
SCCF RECON,ioos:station:SCCF:13:1,2017-06-06T17:00:00Z,26.5255,-82.0032,2.813,-9999.0,1111122 
SCCF RECON,ioos:station:SCCF:13:1,2017-06-06T18:00:00Z,26.5255,-82.0032,2.766,-9999.0,1111122 
SCCF RECON,ioos:station:SCCF:13:1,2017-06-06T19:00:00Z,26.5255,-82.0032,2.713,-9999.0,1111122 
SCCF RECON,ioos:station:SCCF:13:1,2017-06-06T20:00:00Z,26.5255,-82.0032,2.588,-9999.0,1111122 
SCCF RECON,ioos:station:SCCF:13:1,2017-06-06T21:00:00Z,26.5255,-82.0032,2.478,-9999.0,1111122 
SCCF RECON,ioos:station:SCCF:13:1,2017-06-06T22:00:00Z,26.5255,-82.0032,2.41,-9999.0,1111122 
SCCF RECON,ioos:station:SCCF:13:1,2017-06-06T23:00:00Z,26.5255,-82.0032,2.391,-9999.0,1111122 
SCCF RECON,ioos:station:SCCF:13:1,2017-06-07T00:00:00Z,26.5255,-82.0032,2.36,-9999.0,1111122 
SCCF RECON,ioos:station:SCCF:13:1,2017-06-07T01:00:00Z,26.5255,-82.0032,2.36,-9999.0,1111122 
SCCF RECON,ioos:station:SCCF:13:1,2017-06-07T02:00:00Z,26.5255,-82.0032,2.48,-9999.0,1111122 
SCCF RECON,ioos:station:SCCF:13:1,2017-06-07T03:00:00Z,26.5255,-82.0032,2.55,-9999.0,1111122 
SCCF RECON,ioos:station:SCCF:13:1,2017-06-07T04:00:00Z,26.5255,-82.0032,2.58,-9999.0,1111122 
SCCF RECON,ioos:station:SCCF:13:1,2017-06-07T05:00:00Z,26.5255,-82.0032,2.67,-9999.0,1111122 
SCCF RECON,ioos:station:SCCF:13:1,2017-06-07T06:00:00Z,26.5255,-82.0032,2.67,-9999.0,1111122 
SCCF RECON,ioos:station:SCCF:13:1,2017-06-07T07:00:00Z,26.5255,-82.0032,2.67,-9999.0,1111122 
SCCF RECON,ioos:station:SCCF:13:1,2017-06-07T08:00:00Z,26.5255,-82.0032,2.665,-9999.0,1111122 
SCCF RECON,ioos:station:SCCF:13:1,2017-06-07T09:00:00Z,26.5255,-82.0032,2.621,-9999.0,1111122 
SCCF RECON,ioos:station:SCCF:13:1,2017-06-07T10:00:00Z,26.5255,-82.0032,2.522,-9999.0,1111122 
SCCF RECON,ioos:station:SCCF:13:1,2017-06-07T11:00:00Z,26.5255,-82.0032,2.537,-9999.0,1111122 
SCCF RECON,ioos:station:SCCF:13:1,2017-06-07T12:00:00Z,26.5255,-82.0032,2.64,-9999.0,1111122 
SCCF RECON,ioos:station:SCCF:13:1,2017-06-07T13:00:00Z,26.5255,-82.0032,2.71,-9999.0,1111122 
SCCF RECON,ioos:station:SCCF:13:1,2017-06-07T14:00:00Z,26.5255,-82.0032,2.81,-9999.0,1111122 
SCCF RECON,ioos:station:SCCF:13:1,2017-06-07T15:00:00Z,26.5255,-82.0032,2.892,-9999.0,1111122 
SCCF RECON,ioos:station:SCCF:13:1,2017-06-07T16:00:00Z,26.5255,-82.0032,2.928,-9999.0,1111122 
SCCF RECON,ioos:station:SCCF:13:1,2017-06-07T17:00:00Z,26.5255,-82.0032,2.937,-9999.0,1111122 
SCCF RECON,ioos:station:SCCF:13:1,2017-06-07T18:00:00Z,26.5255,-82.0032,2.969,-9999.0,1111122 
SCCF RECON,ioos:station:SCCF:13:1,2017-06-07T19:00:00Z,26.5255,-82.0032,2.886,-9999.0,1111122 
SCCF RECON,ioos:station:SCCF:13:1,2017-06-07T20:00:00Z,26.5255,-82.0032,2.767,-9999.0,1111122 
SCCF RECON,ioos:station:SCCF:13:1,2017-06-07T21:00:00Z,26.5255,-82.0032,2.67,-9999.0,1111122 
SCCF RECON,ioos:station:SCCF:13:1,2017-06-07T22:00:00Z,26.5255,-82.0032,2.536,-9999.0,1111122 
SCCF RECON,ioos:station:SCCF:13:1,2017-06-07T23:00:00Z,26.5255,-82.0032,2.438,-9999.0,1111122 
SCCF RECON,ioos:station:SCCF:13:1,2017-06-08T00:00:00Z,26.5255,-82.0032,2.365,-9999.0,1111122 
SCCF RECON,ioos:station:SCCF:13:1,2017-06-08T01:00:00Z,26.5255,-82.0032,2.37,-9999.0,1111122 
SCCF RECON,ioos:station:SCCF:13:1,2017-06-08T02:00:00Z,26.5255,-82.0032,2.48,-9999.0,1111122 
SCCF RECON,ioos:station:SCCF:13:1,2017-06-08T03:00:00Z,26.5255,-82.0032,2.584,-9999.0,1111122 
SCCF RECON,ioos:station:SCCF:13:1,2017-06-08T04:00:00Z,26.5255,-82.0032,2.66,-9999.0,1111122 
SCCF RECON,ioos:station:SCCF:13:1,2017-06-08T05:00:00Z,26.5255,-82.0032,2.71,-9999.0,1111122 
SCCF RECON,ioos:station:SCCF:13:1,2017-06-08T06:00:00Z,26.5255,-82.0032,2.712,-9999.0,1111122 
SCCF RECON,ioos:station:SCCF:13:1,2017-06-08T07:00:00Z,26.5255,-82.0032,2.68,-9999.0,1111122 
SCCF RECON,ioos:station:SCCF:13:1,2017-06-08T08:00:00Z,26.5255,-82.0032,2.663,-9999.0,1111122 
SCCF RECON,ioos:station:SCCF:13:1,2017-06-08T09:00:00Z,26.5255,-82.0032,2.609,-9999.0,1111122 
SCCF RECON,ioos:station:SCCF:13:1,2017-06-08T10:00:00Z,26.5255,-82.0032,2.543,-9999.0,1111122 
SCCF RECON,ioos:station:SCCF:13:1,2017-06-08T11:00:00Z,26.5255,-82.0032,2.52,-9999.0,1111122 
SCCF RECON,ioos:station:SCCF:13:1,2017-06-08T12:00:00Z,26.5255,-82.0032,2.56,-9999.0,1111122 
SCCF RECON,ioos:station:SCCF:13:1,2017-06-08T13:00:00Z,26.5255,-82.0032,2.663,-9999.0,1111122 
SCCF RECON,ioos:station:SCCF:13:1,2017-06-08T14:00:00Z,26.5255,-82.0032,2.749,-9999.0,1111122 
SCCF RECON,ioos:station:SCCF:13:1,2017-06-08T15:00:00Z,26.5255,-82.0032,2.822,-9999.0,1111122 
SCCF RECON,ioos:station:SCCF:13:1,2017-06-08T16:00:00Z,26.5255,-82.0032,2.878,-9999.0,1111122 
SCCF RECON,ioos:station:SCCF:13:1,2017-06-08T17:00:00Z,26.5255,-82.0032,2.868,-9999.0,1111122 
SCCF RECON,ioos:station:SCCF:13:1,2017-06-08T18:00:00Z,26.5255,-82.0032,2.819,-9999.0,1111122 
SCCF RECON,ioos:station:SCCF:13:1,2017-06-08T19:00:00Z,26.5255,-82.0032,2.712,-9999.0,1111122 
SCCF RECON,ioos:station:SCCF:13:1,2017-06-08T20:00:00Z,26.5255,-82.0032,2.609,-9999.0,1111122 
SCCF RECON,ioos:station:SCCF:13:1,2017-06-08T21:00:00Z,26.5255,-82.0032,2.504,-9999.0,1111122 
SCCF RECON,ioos:station:SCCF:13:1,2017-06-08T22:00:00Z,26.5255,-82.0032,2.39,-9999.0,1111122 
SCCF RECON,ioos:station:SCCF:13:1,2017-06-08T23:00:00Z,26.5255,-82.0032,2.29,-9999.0,1111122 
SCCF RECON,ioos:station:SCCF:13:1,2017-06-09T00:00:00Z,26.5255,-82.0032,2.221,-9999.0,1111122 
SCCF RECON,ioos:station:SCCF:13:1,2017-06-09T01:00:00Z,26.5255,-82.0032,2.191,-9999.0,1111122 
SCCF RECON,ioos:station:SCCF:13:1,2017-06-09T02:00:00Z,26.5255,-82.0032,2.24,-9999.0,1111122 
SCCF RECON,ioos:station:SCCF:13:1,2017-06-09T03:00:00Z,26.5255,-82.0032,2.37,-9999.0,1111122 
SCCF RECON,ioos:station:SCCF:13:1,2017-06-09T04:00:00Z,26.5255,-82.0032,2.45,-9999.0,1111122 
SCCF RECON,ioos:station:SCCF:13:1,2017-06-09T05:00:00Z,26.5255,-82.0032,2.5,-9999.0,1111122 
SCCF RECON,ioos:station:SCCF:13:1,2017-06-09T06:00:00Z,26.5255,-82.0032,2.54,-9999.0,1111122 
SCCF RECON,ioos:station:SCCF:13:1,2017-06-09T07:00:00Z,26.5255,-82.0032,2.56,-9999.0,1111122 
SCCF RECON,ioos:station:SCCF:13:1,2017-06-09T08:00:00Z,26.5255,-82.0032,2.54,-9999.0,1111122 
SCCF RECON,ioos:station:SCCF:13:1,2017-06-09T09:00:00Z,26.5255,-82.0032,2.48,-9999.0,1111122 
SCCF RECON,ioos:station:SCCF:13:1,2017-06-09T10:00:00Z,26.5255,-82.0032,2.43,-9999.0,1111122 
SCCF RECON,ioos:station:SCCF:13:1,2017-06-09T11:00:00Z,26.5255,-82.0032,2.411,-9999.0,1111122 
SCCF RECON,ioos:station:SCCF:13:1,2017-06-09T12:00:00Z,26.5255,-82.0032,2.39,-9999.0,1111122 
SCCF RECON,ioos:station:SCCF:13:1,2017-06-09T13:00:00Z,26.5255,-82.0032,2.41,-9999.0,1111122 
SCCF RECON,ioos:station:SCCF:13:1,2017-06-09T14:00:00Z,26.5255,-82.0032,2.507,-9999.0,1111122 
SCCF RECON,ioos:station:SCCF:13:1,2017-06-09T15:00:00Z,26.5255,-82.0032,2.62,-9999.0,1111122 
SCCF RECON,ioos:station:SCCF:13:1,2017-06-09T16:00:00Z,26.5255,-82.0032,2.7,-9999.0,1111122 
SCCF RECON,ioos:station:SCCF:13:1,2017-06-09T17:00:00Z,26.5255,-82.0032,2.735,-9999.0,1111122 
SCCF RECON,ioos:station:SCCF:13:1,2017-06-09T18:00:00Z,26.5255,-82.0032,2.734,-9999.0,1111122 
SCCF RECON,ioos:station:SCCF:13:1,2017-06-09T19:00:00Z,26.5255,-82.0032,2.67,-9999.0,1111122 
SCCF RECON,ioos:station:SCCF:13:1,2017-06-09T20:00:00Z,26.5255,-82.0032,2.56,-9999.0,1111122 
SCCF RECON,ioos:station:SCCF:13:1,2017-06-09T21:00:00Z,26.5255,-82.0032,2.433,-9999.0,1111122 
SCCF RECON,ioos:station:SCCF:13:1,2017-06-09T22:00:00Z,26.5255,-82.0032,2.346,-9999.0,1111122 
SCCF RECON,ioos:station:SCCF:13:1,2017-06-09T23:00:00Z,26.5255,-82.0032,2.265,-9999.0,1111122 
SCCF RECON,ioos:station:SCCF:13:1,2017-06-10T00:00:00Z,26.5255,-82.0032,2.19,-9999.0,1111122 
SCCF RECON,ioos:station:SCCF:13:1,2017-06-10T01:00:00Z,26.5255,-82.0032,2.14,-9999.0,1111122 
SCCF RECON,ioos:station:SCCF:13:1,2017-06-10T02:00:00Z,26.5255,-82.0032,2.16,-9999.0,1111122 
SCCF RECON,ioos:station:SCCF:13:1,2017-06-10T03:00:00Z,26.5255,-82.0032,2.35,-9999.0,1111122 
SCCF RECON,ioos:station:SCCF:13:1,2017-06-10T04:00:00Z,26.5255,-82.0032,2.32,-9999.0,1111122 
SCCF RECON,ioos:station:SCCF:13:1,2017-06-10T05:00:00Z,26.5255,-82.0032,2.46,-9999.0,1111122 
SCCF RECON,ioos:station:SCCF:13:1,2017-06-10T06:00:00Z,26.5255,-82.0032,2.52,-9999.0,1111122 
SCCF RECON,ioos:station:SCCF:13:1,2017-06-10T07:00:00Z,26.5255,-82.0032,2.56,-9999.0,1111122 
SCCF RECON,ioos:station:SCCF:13:1,2017-06-10T08:00:00Z,26.5255,-82.0032,2.6,-9999.0,1111122 
SCCF RECON,ioos:station:SCCF:13:1,2017-06-10T09:00:00Z,26.5255,-82.0032,2.565,-9999.0,1111122 
SCCF RECON,ioos:station:SCCF:13:1,2017-06-10T10:00:00Z,26.5255,-82.0032,2.531,-9999.0,1111122 
SCCF RECON,ioos:station:SCCF:13:1,2017-06-10T11:00:00Z,26.5255,-82.0032,2.52,-9999.0,1111122 
SCCF RECON,ioos:station:SCCF:13:1,2017-06-10T12:00:00Z,26.5255,-82.0032,2.47,-9999.0,1111122 
SCCF RECON,ioos:station:SCCF:13:1,2017-06-10T13:00:00Z,26.5255,-82.0032,2.46,-9999.0,1111122 
SCCF RECON,ioos:station:SCCF:13:1,2017-06-10T14:00:00Z,26.5255,-82.0032,2.57,-9999.0,1111122 
SCCF RECON,ioos:station:SCCF:13:1,2017-06-10T15:00:00Z,26.5255,-82.0032,2.72,-9999.0,1111122 
SCCF RECON,ioos:station:SCCF:13:1,2017-06-10T16:00:00Z,26.5255,-82.0032,2.72,-9999.0,1111122 
SCCF RECON,ioos:station:SCCF:13:1,2017-06-10T17:00:00Z,26.5255,-82.0032,2.748,-9999.0,1111122 
SCCF RECON,ioos:station:SCCF:13:1,2017-06-10T18:00:00Z,26.5255,-82.0032,2.77,-9999.0,1111122 
SCCF RECON,ioos:station:SCCF:13:1,2017-06-10T19:00:00Z,26.5255,-82.0032,2.78,-9999.0,1111122 
SCCF RECON,ioos:station:SCCF:13:1,2017-06-10T20:00:00Z,26.5255,-82.0032,2.69,-9999.0,1111122 
SCCF RECON,ioos:station:SCCF:13:1,2017-06-10T21:00:00Z,26.5255,-82.0032,2.54,-9999.0,1111122 
SCCF RECON,ioos:station:SCCF:13:1,2017-06-10T22:00:00Z,26.5255,-82.0032,2.45,-9999.0,1111122 
SCCF RECON,ioos:station:SCCF:13:1,2017-06-10T23:00:00Z,26.5255,-82.0032,2.368,-9999.0,1111122 
SCCF RECON,ioos:station:SCCF:13:1,2017-06-11T00:00:00Z,26.5255,-82.0032,2.28,-9999.0,1111122 
SCCF RECON,ioos:station:SCCF:13:1,2017-06-11T01:00:00Z,26.5255,-82.0032,2.19,-9999.0,1111122 
SCCF RECON,ioos:station:SCCF:13:1,2017-06-11T02:00:00Z,26.5255,-82.0032,2.131,-9999.0,1111122 
SCCF RECON,ioos:station:SCCF:13:1,2017-06-11T03:00:00Z,26.5255,-82.0032,2.17,-9999.0,1111122 
SCCF RECON,ioos:station:SCCF:13:1,2017-06-11T04:00:00Z,26.5255,-82.0032,2.29,-9999.0,1111122 
SCCF RECON,ioos:station:SCCF:13:1,2017-06-11T05:00:00Z,26.5255,-82.0032,2.38,-9999.0,1111122 
SCCF RECON,ioos:station:SCCF:13:1,2017-06-11T06:00:00Z,26.5255,-82.0032,2.45,-9999.0,1111122 
SCCF RECON,ioos:station:SCCF:13:1,2017-06-11T07:00:00Z,26.5255,-82.0032,2.5,-9999.0,1111122 
SCCF RECON,ioos:station:SCCF:13:1,2017-06-11T08:00:00Z,26.5255,-82.0032,2.52,-9999.0,1111122 
SCCF RECON,ioos:station:SCCF:13:1,2017-06-11T09:00:00Z,26.5255,-82.0032,2.52,-9999.0,1111122 
SCCF RECON,ioos:station:SCCF:13:1,2017-06-11T10:00:00Z,26.5255,-82.0032,2.52,-9999.0,1111122 
SCCF RECON,ioos:station:SCCF:13:1,2017-06-11T11:00:00Z,26.5255,-82.0032,2.49,-9999.0,1111122 
SCCF RECON,ioos:station:SCCF:13:1,2017-06-11T12:00:00Z,26.5255,-82.0032,2.43,-9999.0,1111122 